Starlink 31210

operational
NORAD ID: 59033 Int'l Des: 2024-038 Owner: SPXS Country: US Constellation: starlink
LEOCIRCULAR

关于 Starlink 31210

正在加载描述...

实时位置

正在加载3D地球...

即将过境

高度历史

Altitude vs Time

uPlot chart will show altitude changes over time

两行轨道根数

1 59033U 24038L 25354.02499558 .00000336 00000-0 21742-4 0 9990
2 59033 43.0022 113.5481 0001254 277.0390 83.0319 15.27575082102678
Epoch: Dec 20, 2025 • Age: 15 hours

当前状态

高度 491.5 km
速度 7.62 km/s
星下点 -33.01°S, 95.62°E
发射日期 Feb 25, 2024
运行时间 1.8 years
类型 internet

技术详情

分类 Payload
质量 730.00 kg
干质量 700.00 kg
总质量 730.00 kg
长度 0.30 m
直径 4.10 m
跨度 29.00 m
形状 Box + pan
制造商 SPXS
平台类型 Starlink V2M
阶段状态 In Orbit
所有者/国家 SPXS/US

大型星座

Loading constellations...